Location: Ladrillo (historical)
(32.8195°N, 117.2231°W)
Time: 16:27:34
(UTC+00:00)

deb Explorer IX - Visible Passes

Search period start: 27 February 2021 00:00
Search period end: 09 March 2021 00:00
Orbit: 537 x 1102 km, 38.8° (Epoch: 27 February)

Date Brightness Start Highest point End Pass type
(mag) Time Alt. Az. Time Alt. Az. Time Alt. Az.
27 Feb ? 11:29:51 15° ENE 11:29:51 15° ENE 11:30:39 10° ENE visible
27 Feb ? 13:11:06 22° WNW 13:13:20 40° N 13:17:49 10° ENE visible
28 Feb ? 12:48:38 33° NW 12:49:41 39° N 12:53:59 10° ENE visible
01 Mar ? 12:26:09 38° N 12:26:09 38° N 12:30:12 10° ENE visible
02 Mar ? 12:03:39 30° NNE 12:03:39 30° NNE 12:06:25 10° ENE visible
02 Mar ? 13:45:29 10° WNW 13:49:35 46° NNE 13:54:14 10° E visible
03 Mar ? 11:41:08 20° NE 11:41:08 20° NE 11:42:40 10° ENE visible
03 Mar ? 13:22:24 13° WNW 13:25:55 45° NNE 13:30:24 10° E visible
04 Mar ? 11:18:39 12° ENE 11:18:39 12° ENE 11:18:56 10° ENE visible
04 Mar ? 12:59:54 22° NW 13:02:15 44° NNE 13:06:35 10° E visible
05 Mar ? 12:37:26 35° NNW 12:38:35 44° NNE 12:42:47 10° E visible
06 Mar ? 12:15:00 43° NNE 12:15:00 43° NNE 12:19:01 10° E visible
07 Mar ? 11:52:36 32° ENE 11:52:36 32° ENE 11:55:15 10° E visible
07 Mar ? 13:33:57 10° WNW 13:38:00 59° SSW 13:42:29 10° SE visible
08 Mar ? 11:30:17 18° ENE 11:30:17 18° ENE 11:31:31 10° E visible
08 Mar ? 13:11:32 19° WNW 13:14:20 58° SSW 13:18:40 10° SE visible
